Location: Seattle
(47.6064°N, 122.3308°W)
Time: 09:19:50
(UTC-07:00)

RS-15 - Pass Details

Date: 05 April 2023
Orbit: 1885 x 2159 km, 64.8° (Epoch: 01 June)

Event Time Altitude Azimuth Distance (km) Brightness Sun altitude
Rises 23:31:11 0° 319° (NW) 5,653 11.5 -31.6°
Reaches altitude 10° 23:34:42 10° 321° (NW) 4,625 10.8 -31.9°
Maximum altitude 23:46:49 75° 48° (NE) 2,108 8.0 -32.8°
Enters shadow 23:50:12 53° 116° (ESE) 2,384 8.1 -33.1°
